Location: Monteux
(44.0348°N, 4.9972°E)
Time: 18:30:13
(UTC+00:00)

X-37B - Pass Details

Date: 30 November 2020
Orbit: 385 x 390 km, 45.0° (Epoch: 20 January)

Event Time Altitude Azimuth Distance (km) Brightness Sun altitude
Rises 16:40:47 0° 231° (SW) 2,252 6.3 -6.8°
Reaches altitude 10° 16:42:56 10° 222° (SW) 1,401 4.6 -7.2°
Maximum altitude 16:45:51 35° 154° (SSE) 637 1.6 -7.7°
Drops below altitude 10° 16:48:46 10° 86° (E) 1,406 2.8 -8.1°
Enters shadow 16:48:47 10° 86° (E) 1,409 2.8 -8.1°
